Tracking 22882 objects as of 18-Apr-2021
HD Live streaming from Space Station
objects crossing your sky now

STARLINK-1860

Track STARLINK-1860 now!
10-day predictions
STARLINK-1860 is classified as:


NORAD ID: 47147
Int'l Code: 2020-088AB
Perigee: 553.2 km
Apogee: 555.5 km
Inclination: 53.1 °
Period: 95.6 minutes
Semi major axis: 6925 km
RCS: Unknown
Launch date: November 25, 2020
Source: United States (US)
Launch site: AIR FORCE EASTERN TEST RANGE (AFETR)
aabbcc
Your satellite tracking list
Your tracking list is empty




NASA's NSSDC Master Catalog

Two Line Element Set (TLE):
1 47147U 20088AB  21108.58335648 -.00027777  00000-0 -18529-2 0  9994
2 47147  53.0570  39.7434 0001632  62.0891  24.5597 15.06404302  1753
Source of the keplerian elements: AFSPC